| time (UTC) | temp F | wind direction | speed MPH | gust MPH | rain 1hr in | rain 24hr in | rain mn in | humidity % | barometer mb |
| 20260506014544 | 76 | 17 | 6.0 | 12.0 | 0.00 | 0.00 | 0.00 | 26 | 1007.3 |
| 20260506013039 | 77 | 355 | 6.0 | 13.0 | 0.00 | 0.00 | 0.00 | 25 | 1007.3 |
| 20260506011539 | 78 | 345 | 3.0 | 14.0 | 0.00 | 0.00 | 0.00 | 26 | 1007.1 |
| 20260506010047 | 78 | 23 | 6.0 | 13.0 | 0.00 | 0.00 | 0.00 | 25 | 1007.1 |
| 20260506004539 | 79 | 333 | 7.0 | 18.0 | 0.00 | 0.00 | 0.00 | 24 | 1007.1 |
| 20260506003042 | 78 | 342 | 6.0 | 14.0 | 0.00 | 0.00 | 0.00 | 23 | 1007.0 |
| 20260506001545 | 79 | 300 | 6.0 | 16.0 | 0.00 | 0.00 | 0.00 | 24 | 1007.1 |
| 20260506000038 | 79 | 265 | 3.0 | 15.0 | 0.00 | 0.00 | 0.00 | 24 | 1007.2 |
| 20260505234600 | 79 | 304 | 6.0 | 17.0 | 0.00 | 0.00 | 0.00 | 23 | 1007.3 |
| 20260505233039 | 80 | 355 | 4.0 | 12.0 | 0.00 | 0.00 | 0.00 | 24 | 1007.5 |
| 20260505231537 | 79 | 320 | 5.0 | 16.0 | 0.00 | 0.00 | 0.00 | 24 | 1007.3 |
| 20260505230042 | 79 | 344 | 7.0 | 17.0 | 0.00 | 0.00 | 0.00 | 24 | 1007.5 |
| 20260505224539 | 78 | 311 | 8.0 | 15.0 | 0.00 | 0.00 | 0.00 | 26 | 1007.7 |
| 20260505223041 | 78 | 324 | 6.0 | 17.0 | 0.00 | 0.00 | 0.00 | 26 | 1007.8 |
| 20260505221539 | 78 | 293 | 5.0 | 15.0 | 0.00 | 0.00 | 0.00 | 25 | 1007.9 |
| 20260505220041 | 78 | 347 | 4.0 | 13.0 | 0.00 | 0.00 | 0.00 | 27 | 1008.2 |
| 20260505214602 | 78 | 346 | 4.0 | 13.0 | 0.00 | 0.00 | 0.00 | 26 | 1008.5 |
| 20260505213056 | 77 | 290 | 3.0 | 14.0 | 0.00 | 0.00 | 0.00 | 27 | 1008.6 |
| 20260505211541 | 76 | 326 | 5.0 | 14.0 | 0.00 | 0.00 | 0.00 | 29 | 1009.0 |
| 20260505210040 | 76 | 317 | 4.0 | 12.0 | 0.00 | 0.00 | 0.00 | 30 | 1009.0 |
| 20260505204550 | 75 | 290 | 4.0 | 15.0 | 0.00 | 0.00 | 0.00 | 32 | 1009.1 |
| 20260505203049 | 75 | 285 | 4.0 | 9.0 | 0.00 | 0.00 | 0.00 | 29 | 1009.2 |
| 20260505201541 | 74 | 360 | 4.0 | 11.0 | 0.00 | 0.00 | 0.00 | 31 | 1009.2 |
| 20260505200052 | 73 | 286 | 4.0 | 12.0 | 0.00 | 0.00 | 0.00 | 32 | 1009.4 |
| 20260505194545 | 73 | 266 | 2.0 | 11.0 | 0.00 | 0.00 | 0.00 | 34 | 1009.4 |
| 20260505193037 | 72 | 300 | 3.0 | 11.0 | 0.00 | 0.00 | 0.00 | 32 | 1009.4 |
| 20260505191544 | 72 | 180 | 5.0 | 14.0 | 0.00 | 0.00 | 0.00 | 31 | 1009.8 |
| 20260505190042 | 72 | 256 | 4.0 | 11.0 | 0.00 | 0.00 | 0.00 | 31 | 1009.8 |
| 20260505184540 | 72 | 192 | 4.0 | 12.0 | 0.00 | 0.00 | 0.00 | 31 | 1010.0 |
| 20260505183039 | 71 | 199 | 4.0 | 9.0 | 0.00 | 0.00 | 0.00 | 32 | 1010.2 |
| 20260505181540 | 70 | 265 | 3.0 | 11.0 | 0.00 | 0.00 | 0.00 | 32 | 1010.4 |
| 20260505180057 | 70 | 0 | 0.0 | 6.0 | 0.00 | 0.00 | 0.00 | 33 | 1010.3 |
| 20260505174558 | 69 | 196 | 2.0 | 9.0 | 0.00 | 0.00 | 0.00 | 35 | 1010.2 |
| 20260505173045 | 69 | 175 | 4.0 | 11.0 | 0.00 | 0.00 | 0.00 | 34 | 1010.2 |
| 20260505171539 | 68 | 200 | 5.0 | 12.0 | 0.00 | 0.00 | 0.00 | 35 | 1010.2 |
| 20260505170039 | 68 | 215 | 5.0 | 9.0 | 0.00 | 0.00 | 0.00 | 35 | 1010.0 |
| 20260505164537 | 68 | 179 | 7.0 | 11.0 | 0.00 | 0.00 | 0.00 | 33 | 1009.9 |
| 20260505163042 | 68 | 112 | 3.0 | 14.0 | 0.00 | 0.00 | 0.00 | 35 | 1010.0 |
| 20260505161541 | 67 | 140 | 6.0 | 15.0 | 0.00 | 0.00 | 0.00 | 34 | 1009.9 |
| 20260505153040 | 66 | 167 | 8.0 | 15.0 | 0.00 | 0.00 | 0.00 | 36 | 1009.7 |
| 20260505151537 | 65 | 167 | 8.0 | 15.0 | 0.00 | 0.00 | 0.00 | 40 | 1009.7 |
| 20260505124542 | 0 | 0.0 | 0.0 | 0.00 | 0.00 | 0.00 | 1007.7 | ||
| 20260505123038 | 0 | 0.0 | 0.0 | 0.00 | 0.00 | 0.00 | 1007.5 | ||
| 20260505121542 | 0 | 0.0 | 0.0 | 0.00 | 0.00 | 0.00 | 1007.2 | ||
| 20260505120043 | 0 | 0.0 | 0.0 | 0.00 | 0.00 | 0.00 | 1006.8 | ||
| 20260505114548 | 0 | 0.0 | 0.0 | 0.00 | 0.00 | 0.00 | 1006.6 | ||
| 20260505113037 | 0 | 0.0 | 0.0 | 0.00 | 0.00 | 0.00 | 1006.6 | ||
| 20260505111538 | 0 | 0.0 | 0.0 | 0.00 | 0.00 | 0.00 | 1006.4 | ||
| 20260505101539 | 0 | 0.0 | 0.0 | 0.00 | 0.00 | 0.00 | 1005.5 | ||
| 20260505100038 | 0 | 0.0 | 0.0 | 0.00 | 0.00 | 0.00 | 1005.4 | ||
| 20260505094545 | 0 | 0.0 | 0.0 | 0.00 | 0.00 | 0.00 | 1005.4 | ||
| 20260505093043 | 0 | 0.0 | 0.0 | 0.00 | 0.00 | 0.00 | 1005.1 | ||
| 20260505091557 | 0 | 0.0 | 0.0 | 0.00 | 0.00 | 0.00 | 1004.9 | ||
| 20260505090045 | 0 | 0.0 | 0.0 | 0.00 | 0.00 | 0.00 | 1004.9 | ||
| 20260505084539 | 0 | 0.0 | 0.0 | 0.00 | 0.00 | 0.00 | 1005.0 | ||
| 20260505083036 | 0 | 0.0 | 0.0 | 0.00 | 0.00 | 0.00 | 1004.9 | ||
| 20260505081554 | 0 | 0.0 | 0.0 | 0.00 | 0.00 | 0.00 | 1004.7 | ||
| 20260505080040 | 0 | 0.0 | 0.0 | 0.00 | 0.00 | 0.00 | 1004.7 | ||
| 20260505074540 | 0 | 0.0 | 0.0 | 0.00 | 0.00 | 0.00 | 1004.7 | ||
| 20260505073038 | 0 | 0.0 | 0.0 | 0.00 | 0.00 | 0.00 | 1004.7 | ||
| 20260505071545 | 0 | 0.0 | 0.0 | 0.00 | 0.00 | 0.00 | 1004.6 | ||
| 20260505070047 | 0 | 0.0 | 0.0 | 0.00 | 0.00 | 0.00 | 1004.5 | ||
| 20260505064542 | 0 | 0.0 | 0.0 | 0.00 | 0.00 | 0.00 | 1004.2 | ||
| 20260505063051 | 0 | 0.0 | 0.0 | 0.00 | 0.00 | 0.00 | 1004.1 | ||
| 20260505061605 | 0 | 0.0 | 0.0 | 0.00 | 0.00 | 0.00 | 1004.0 | ||
| 20260505060039 | 0 | 0.0 | 0.0 | 0.00 | 0.00 | 0.00 | 1004.0 | ||
| 20260505054603 | 0 | 0.0 | 0.0 | 0.00 | 0.00 | 0.00 | 1003.9 | ||
| 20260505053045 | 0 | 0.0 | 0.0 | 0.00 | 0.00 | 0.00 | 1003.9 | ||
| 20260505051610 | 0 | 0.0 | 0.0 | 0.00 | 0.00 | 0.00 | 1004.0 | ||
| 20260505041548 | 0 | 0.0 | 0.0 | 0.00 | 0.00 | 0.00 | 1003.8 | ||
| 20260505040040 | 0 | 0.0 | 0.0 | 0.00 | 0.00 | 0.00 | 1003.6 | ||
| 20260505034539 | 0 | 0.0 | 0.0 | 0.00 | 0.00 | 0.00 | 1003.3 | ||
| 20260505033037 | 0 | 0.0 | 0.0 | 0.00 | 0.00 | 0.00 | 1003.3 | ||
| 20260505031535 | 0 | 0.0 | 0.0 | 0.00 | 0.00 | 0.00 | 1003.0 | ||
| 20260505030042 | 0 | 0.0 | 0.0 | 0.00 | 0.00 | 0.00 | 1002.9 | ||
| 20260505024546 | 0 | 0.0 | 0.0 | 0.00 | 0.00 | 0.00 | 1002.8 | ||
| 20260505023041 | 0 | 0.0 | 0.0 | 0.00 | 0.00 | 0.00 | 1002.6 | ||
| 20260505021538 | 0 | 0.0 | 0.0 | 0.00 | 0.00 | 0.00 | 1002.5 | ||
| 20260505020037 | 0 | 0.0 | 0.0 | 0.00 | 0.00 | 0.00 | 1002.5 |